Wind_Speed
9 9 10 9 8 8 7 8 9 9 9 8 7 7 7 7 7 7 6 6 5 6 7 7 7 8 8 8 9 9 9 9 9 9 10 10 10 10 11 11 11 12 13
9 9 9 9 9 9 9 9 9 9 9 9 8 8 8 8 8 7 7 8 7 6 7 8 9 9 9 9 10 10 9 9 9 9 10 10 10 11 11 11 12 12 14
8 8 9 9 10 9 9 10 9 9 9 9 9 9 9 9 9 9 8 8 8 8 8 9 9 10 10 10 10 10 10 10 11 11 11 11 12 12 12 13 14 14 14
8 9 9 9 9 10 10 11 10 9 10 10 10 10 10 9 10 10 9 9 9 9 9 9 10 10 11 11 11 11 11 12 12 12 12 13 13 13 14 14 15 15 16
9 9 10 10 9 10 10 11 11 10 12 12 12 11 11 11 11 11 11 10 10 11 11 10 11 11 11 12 12 12 12 12 13 13 14 14 15 15 15 16 16 16 16
10 11 10 11 10 10 11 11 12 13 13 13 13 12 12 12 11 11 12 12 12 12 12 12 13 12 12 12 12 13 13 13 13 14 15 16 17 17 16 16 17 17 17
10 11 10 11 11 11 12 11 12 13 13 14 14 13 12 13 12 12 12 13 13 13 13 13 14 14 14 14 14 14 14 15 15 15 16 16 17 18 18 18 18 18 19
10 11 11 12 12 12 12 12 13 13 13 14 14 14 13 13 13 13 12 12 12 13 13 14 15 15 14 15 15 16 16 16 16 17 17 17 18 18 19 19 19 19 19
11 11 11 12 13 13 13 13 13 13 13 14 14 14 14 13 13 13 13 12 12 12 13 14 15 15 15 16 16 17 17 17 17 17 17 18 18 19 20 20 20 20 20
12 12 13 13 13 13 13 13 13 14 14 14 14 15 14 13 13 13 13 13 13 14 15 15 16 16 16 16 17 17 17 17 18 18 18 18 18 20 21 21 21 21 22
13 13 14 13 13 14 14 14 15 15 15 15 15 16 16 15 14 14 14 15 15 16 16 16 17 17 17 17 17 18 18 19 19 20 20 20 20 21 21 22 23 24 23
14 14 14 14 15 15 15 15 15 16 17 16 17 17 17 16 16 17 17 16 16 17 18 18 18 18 19 19 19 19 20 20 21 21 21 21 22 22 22 22 23 24 24
15 15 14 15 16 16 17 17 17 17 18 18 18 18 18 18 18 18 18 18 18 18 19 19 20 20 20 21 21 20 20 20 21 21 22 23 22 22 22 22 23 24 25
17 16 16 16 17 17 18 19 19 19 19 19 19 19 19 18 18 19 19 20 19 20 20 20 20 21 21 22 22 22 22 22 22 22 23 23 23 23 23 23 24 25 26
17 16 17 18 18 18 19 20 20 20 21 20 20 19 19 19 20 20 20 21 21 21 21 22 22 23 23 23 23 22 22 22 23 23 23 24 24 24 25 25 25 26 27
18 18 18 19 19 18 19 19 20 21 22 21 21 21 21 20 21 22 22 22 22 22 22 23 24 24 24 24 23 23 23 23 23 24 24 24 25 25 25 26 27 28 28
21 21 19 20 19 19 20 20 21 22 22 22 22 22 22 23 23 23 23 23 23 23 24 24 25 25 25 24 24 24 24 24 24 24 24 25 26 26 26 27 28 28 28
22 22 21 21 21 20 21 21 21 22 23 23 23 24 24 23 24 24 24 24 25 25 25 25 26 26 25 25 24 25 24 24 24 24 25 25 26 27 27 27 27 27 27
21 21 21 21 21 21 21 22 23 24 24 24 24 25 25 24 25 26 26 26 26 26 26 27 26 26 26 26 25 26 26 26 26 26 27 27 27 28 28 28 28 27 27
21 21 21 22 22 22 22 23 23 24 24 24 25 25 26 26 26 26 27 27 27 27 27 27 27 27 27 27 27 27 27 27 28 28 28 29 29 29 29 28 28 27 27
22 22 22 22 22 23 23 23 23 25 25 25 26 26 27 27 27 28 27 27 27 27 27 27 27 27 27 27 27 27 28 28 28 28 28 29 29 28 29 28 27 26 26
23 24 24 23 23 24 24 24 25 26 26 26 26 27 28 28 28 28 28 27 27 27 28 27 27 27 27 28 28 28 29 29 29 29 29 28 28 29 29 28 28 27 27
25 25 25 25 25 25 25 25 26 27 28 27 27 28 28 29 29 29 28 28 28 28 28 28 28 29 29 29 29 29 30 29 29 29 29 29 29 29 28 28 28 27 27
25 26 26 25 25 26 26 27 28 29 29 28 29 29 30 29 29 29 29 28 29 29 29 29 29 29 29 29 30 30 30 30 30 30 29 29 29 29 28 28 28 28 28
25 26 26 26 26 26 27 27 28 29 30 30 30 30 30 29 29 29 29 29 30 30 31 30 30 30 30 30 31 31 31 30 29 29 29 29 29 30 29 28 28 28 28
25 26 27 27 27 27 27 28 29 30 30 31 30 30 29 29 29 29 30 30 30 31 31 31 31 30 30 30 31 31 31 30 30 30 29 28 28 28 27 27 27 27 27
Wind_Direction
4 360 355 352 348 346 346 347 348 344 340 338 333 330 331 328 327 323 316 309 300 294 289 283 282 282 280 280 279 280 274 272 269 264 263 265 263 259 256 257 253 249 250
352 352 352 352 352 349 347 342 342 343 343 339 333 329 327 325 320 313 309 308 307 299 291 288 284 282 281 281 280 280 273 273 269 263 259 258 260 263 261 261 258 257 255
353 355 353 350 349 346 344 342 340 341 341 340 336 328 320 319 317 313 308 304 302 299 294 294 295 290 284 281 280 278 274 273 271 268 263 257 258 264 262 261 260 261 261
349 349 348 347 343 342 344 344 341 336 337 335 330 323 319 315 314 310 305 301 301 303 296 297 297 295 289 286 285 284 277 273 271 270 268 266 266 265 262 261 262 263 263
341 341 340 341 341 340 338 338 340 342 340 337 330 324 321 316 311 305 300 298 298 298 297 294 295 293 292 290 288 286 284 279 276 275 272 270 270 269 267 262 263 264 264
335 334 333 333 337 337 336 334 337 339 339 336 332 325 324 321 315 308 303 298 296 296 296 293 293 291 291 292 291 289 287 283 277 274 274 275 272 271 270 267 263 263 263
324 331 336 332 329 330 334 333 332 333 334 334 334 329 327 325 319 314 307 299 297 295 295 296 295 291 290 290 291 290 287 283 280 276 275 274 272 269 268 267 264 262 262
319 324 331 331 329 328 328 329 327 328 331 331 331 328 323 321 318 313 307 303 300 296 296 295 297 294 291 291 291 290 289 286 283 281 278 277 274 272 269 267 266 264 262
320 321 325 327 327 327 326 325 327 328 328 328 327 326 320 318 316 312 310 307 303 301 300 300 298 298 294 292 292 291 290 287 286 284 282 281 279 276 273 271 270 269 266
320 321 323 323 323 324 327 325 326 326 325 325 326 328 323 319 319 317 313 308 305 302 300 300 301 299 298 294 292 290 289 286 286 285 283 282 281 281 277 273 271 270 270
317 318 319 319 321 322 322 322 323 324 323 322 322 324 320 315 314 311 308 306 303 301 300 300 299 299 298 297 295 292 290 287 285 286 285 284 282 279 277 275 272 270 269
310 312 316 317 317 316 316 318 320 321 321 318 317 317 316 313 310 306 304 304 303 301 300 299 298 297 296 294 292 291 288 286 284 284 284 284 283 280 277 275 272 271 270
307 308 311 313 313 312 312 314 316 318 319 318 314 314 311 309 308 305 305 302 300 299 300 300 299 297 295 294 292 291 289 286 285 285 283 282 281 280 277 276 274 272 272
305 304 305 306 307 307 309 311 314 315 316 316 315 313 311 308 308 307 304 303 300 299 298 298 298 298 297 294 292 291 289 287 285 283 283 281 280 279 277 276 275 274 274
300 301 301 302 303 304 306 308 310 311 313 313 313 312 310 309 307 307 306 304 301 300 300 298 297 297 298 296 294 293 292 289 288 287 286 283 280 280 278 277 276 275 276
294 294 295 297 299 302 303 305 307 308 310 311 311 309 307 306 305 305 306 306 305 303 302 300 300 301 301 300 297 295 293 293 291 290 288 285 283 283 281 279 279 278 278
289 291 292 292 295 298 300 302 304 306 309 310 309 307 306 304 305 305 305 306 306 305 305 304 302 302 302 300 298 296 294 292 292 292 292 289 288 287 285 284 282 278 277
288 288 289 293 293 294 298 301 303 305 307 308 308 307 305 304 305 307 307 305 304 303 303 304 303 302 301 299 297 295 294 293 293 293 293 291 289 287 287 287 282 279 277
287 287 289 292 293 294 296 300 303 304 305 305 304 305 306 307 307 306 306 305 303 302 302 301 301 300 300 298 296 295 295 294 293 293 292 290 288 288 287 287 284 281 277
286 287 289 291 293 295 296 299 302 304 305 306 306 307 307 307 306 305 305 303 302 302 303 303 302 301 300 298 297 295 295 293 293 292 291 289 288 288 287 286 285 283 279
284 288 291 293 294 296 298 299 302 305 307 307 307 306 306 306 305 304 303 302 302 303 304 303 302 301 301 301 300 297 295 295 295 294 293 290 289 289 288 286 284 282 281
284 287 290 292 293 293 295 297 301 305 306 307 307 306 305 305 304 304 303 303 303 303 303 303 301 301 301 300 298 298 298 297 296 296 296 293 291 291 288 284 282 282 281
284 286 289 292 293 294 295 298 301 303 305 306 306 306 305 304 303 303 303 302 302 302 302 302 301 300 300 300 301 301 301 299 297 297 297 296 295 293 289 286 284 283 282
286 287 289 292 295 297 298 299 300 302 304 305 305 304 303 303 302 301 301 301 301 301 301 301 302 301 301 301 301 301 301 299 298 296 297 297 295 293 289 285 284 284 283
288 290 292 292 295 297 298 299 300 301 303 304 304 303 302 302 300 300 300 301 301 301 301 301 301 301 301 300 300 300 299 298 298 299 299 297 295 294 291 287 285 283 283
289 291 293 294 295 296 296 298 300 302 303 304 304 303 301 301 301 300 300 300 300 300 300 300 300 299 300 300 300 299 298 297 297 298 298 299 298 297 294 291 287 285 283
Height
5896 5894 5892 5891 5889 5887 5886 5885 5884 5883 5881 5879 5878 5877 5875 5874 5874 5873 5872 5871 5870 5870 5869 5869 5868 5868 5867 5867 5866 5866 5865 5865 5864 5864 5864 5864 5864 5864 5864 5865 5865 5865 5866
5896 5894 5893 5891 5889 5887 5886 5884 5883 5882 5880 5879 5877 5875 5874 5873 5872 5871 5870 5870 5869 5868 5868 5867 5867 5866 5865 5865 5864 5864 5863 5863 5862 5862 5862 5862 5863 5862 5862 5862 5862 5863 5863
5895 5894 5893 5891 5889 5887 5885 5884 5882 5881 5879 5877 5876 5874 5873 5872 5871 5870 5869 5868 5867 5866 5866 5865 5864 5863 5863 5862 5862 5861 5861 5860 5860 5860 5860 5860 5860 5859 5859 5859 5859 5859 5859
5895 5894 5892 5890 5889 5887 5885 5883 5881 5879 5878 5876 5875 5873 5872 5870 5869 5867 5866 5865 5865 5864 5863 5863 5862 5861 5860 5860 5859 5858 5858 5857 5857 5857 5856 5856 5856 5856 5856 5855 5855 5855 5855
5894 5893 5891 5889 5888 5886 5884 5882 5880 5878 5876 5875 5873 5871 5870 5868 5867 5865 5864 5863 5863 5862 5861 5860 5859 5859 5858 5857 5856 5855 5855 5854 5854 5854 5853 5852 5852 5852 5852 5852 5851 5851 5851
5893 5892 5890 5888 5886 5884 5882 5880 5878 5877 5874 5872 5871 5869 5868 5866 5864 5863 5862 5861 5860 5859 5858 5857 5856 5856 5855 5854 5853 5852 5852 5851 5850 5850 5849 5849 5848 5848 5847 5847 5847 5847 5847
5892 5891 5889 5887 5885 5883 5881 5879 5877 5875 5873 5871 5869 5867 5866 5864 5862 5861 5859 5858 5857 5857 5856 5855 5853 5852 5852 5851 5850 5849 5848 5847 5846 5846 5845 5844 5844 5843 5843 5843 5842 5842 5842
5891 5889 5888 5885 5883 5881 5879 5877 5875 5873 5871 5869 5867 5865 5863 5862 5860 5858 5857 5856 5855 5854 5853 5852 5851 5849 5848 5847 5846 5845 5844 5843 5842 5841 5840 5840 5839 5839 5838 5837 5837 5837 5837
5889 5887 5886 5884 5882 5879 5877 5875 5874 5872 5869 5867 5865 5862 5860 5859 5857 5856 5854 5853 5852 5851 5850 5849 5847 5845 5844 5843 5842 5840 5839 5838 5837 5836 5836 5835 5834 5833 5833 5832 5832 5832 5832
5887 5885 5883 5881 5879 5877 5875 5873 5872 5870 5867 5865 5862 5860 5858 5856 5855 5853 5852 5850 5849 5848 5846 5845 5844 5842 5840 5839 5837 5836 5835 5833 5832 5831 5831 5830 5829 5828 5827 5827 5826 5826 5826
5884 5883 5881 5879 5877 5875 5873 5871 5869 5867 5865 5863 5860 5858 5855 5853 5852 5850 5849 5847 5846 5844 5842 5841 5840 5838 5836 5835 5833 5831 5830 5828 5827 5826 5825 5825 5823 5822 5821 5821 5820 5820 5820
5882 5880 5878 5876 5874 5873 5871 5869 5867 5865 5863 5860 5858 5855 5853 5850 5848 5847 5845 5844 5842 5840 5839 5837 5835 5833 5832 5830 5828 5826 5825 5823 5822 5821 5820 5819 5817 5816 5815 5814 5814 5813 5813
5879 5877 5875 5873 5872 5870 5868 5866 5864 5862 5859 5857 5855 5852 5850 5847 5845 5843 5841 5840 5838 5836 5834 5832 5831 5829 5827 5825 5823 5821 5819 5818 5816 5815 5814 5812 5811 5810 5809 5808 5807 5807 5806
5875 5874 5872 5870 5869 5867 5865 5863 5860 5858 5856 5853 5851 5849 5846 5844 5842 5839 5838 5836 5834 5832 5830 5828 5825 5823 5821 5819 5817 5815 5814 5812 5810 5809 5807 5806 5805 5804 5802 5801 5800 5800 5799
5872 5870 5868 5867 5865 5863 5861 5859 5856 5854 5852 5849 5847 5845 5842 5840 5838 5836 5833 5831 5829 5827 5824 5822 5820 5818 5815 5813 5810 5809 5807 5805 5804 5802 5800 5799 5798 5796 5795 5794 5793 5792 5792
5867 5866 5864 5863 5861 5859 5857 5855 5852 5850 5847 5845 5843 5840 5838 5836 5833 5831 5829 5826 5824 5821 5819 5816 5814 5811 5809 5807 5804 5803 5801 5799 5797 5795 5793 5792 5790 5789 5787 5786 5785 5784 5783
5863 5861 5859 5858 5856 5854 5852 5850 5848 5845 5843 5840 5838 5835 5833 5830 5828 5826 5823 5821 5818 5816 5813 5810 5808 5806 5803 5800 5798 5796 5794 5793 5791 5788 5786 5785 5783 5782 5780 5778 5777 5775 5774
5857 5856 5854 5852 5851 5849 5847 5845 5843 5840 5838 5835 5833 5830 5827 5825 5822 5820 5817 5815 5813 5810 5807 5804 5802 5799 5797 5794 5792 5790 5788 5786 5784 5781 5779 5778 5776 5774 5772 5770 5768 5767 5766
5851 5850 5848 5847 5845 5843 5842 5840 5837 5835 5832 5830 5827 5825 5822 5819 5816 5814 5811 5809 5806 5803 5801 5798 5796 5793 5790 5788 5786 5783 5781 5779 5777 5774 5772 5770 5768 5766 5763 5761 5760 5758 5757
5845 5844 5842 5841 5839 5838 5836 5834 5832 5829 5827 5824 5821 5818 5815 5813 5810 5808 5805 5802 5799 5797 5794 5791 5789 5786 5784 5781 5779 5776 5774 5771 5769 5767 5764 5761 5759 5757 5755 5753 5751 5750 5748
5839 5838 5837 5835 5834 5832 5830 5827 5825 5823 5820 5817 5815 5812 5809 5807 5804 5801 5798 5795 5792 5790 5787 5785 5782 5779 5777 5774 5771 5769 5766 5764 5761 5758 5756 5753 5751 5748 5746 5744 5742 5741 5740
5833 5832 5831 5829 5827 5825 5823 5821 5819 5817 5814 5811 5808 5805 5803 5800 5797 5794 5791 5788 5786 5783 5780 5778 5775 5772 5770 5767 5764 5761 5758 5755 5753 5750 5747 5745 5742 5740 5738 5736 5734 5733 5731
5827 5826 5824 5823 5821 5819 5817 5815 5812 5810 5807 5804 5802 5799 5796 5793 5790 5787 5784 5782 5779 5776 5773 5770 5768 5765 5762 5759 5756 5753 5750 5747 5745 5742 5739 5736 5734 5731 5729 5728 5726 5724 5722
5821 5820 5818 5816 5814 5812 5810 5808 5806 5803 5800 5797 5795 5792 5789 5786 5782 5780 5777 5774 5772 5769 5766 5763 5760 5757 5754 5751 5748 5745 5742 5739 5736 5734 5731 5728 5725 5723 5720 5719 5717 5715 5714
5814 5813 5811 5809 5807 5805 5803 5801 5798 5796 5793 5790 5787 5784 5781 5778 5775 5772 5769 5766 5764 5760 5758 5755 5752 5749 5747 5744 5740 5737 5734 5731 5729 5726 5723 5720 5718 5715 5712 5710 5708 5707 5705
5807 5806 5804 5802 5800 5798 5796 5794 5791 5788 5785 5782 5779 5776 5773 5770 5767 5764 5761 5758 5755 5752 5749 5746 5743 5741 5738 5735 5732 5729 5726 5723 5720 5717 5715 5712 5709 5706 5704 5701 5699 5698 5696